Location: Newark
(41.6500°N, 71.4833°W)
Time: 04:32:23
(UTC+00:00)

A-11 Canister half - Pass Details

Date: 25 January 2020
Orbit: 1517 x 1683 km, 47.2° (Epoch: 16 February)

Event Time Altitude Azimuth Distance (km) Brightness Sun altitude
Rises 08:47:48 0° 290° (WNW) 4,677 - -36.7°
Reaches altitude 10° 08:50:52 10° 293° (WNW) 3,686 - -36.1°
Exits shadow 08:59:09 69° 333° (NNW) 1,605 8.8 -34.6°
Maximum altitude 09:00:09 75° 19° (NNE) 1,564 8.9 -34.4°
Drops below altitude 10° 09:09:29 10° 105° (ESE) 3,708 11.8 -32.6°
Sets 09:12:34 0° 107° (ESE) 4,706 12.5 -32.1°
